Location: Tamazert
(32.6352°N, 5.2072°W)
Time: 15:37:13
(UTC+00:00)

Cosmos 2058 Rocket - Pass Details

Date: 22 May 2022
Orbit: 609 x 640 km, 82.5° (Epoch: 28 June)

Event Time Altitude Azimuth Distance (km) Brightness Sun altitude
Rises 04:07:15 0° 0° (N) 2,895 7.0 -13.7°
Reaches altitude 10° 04:09:34 10° 6° (N) 1,981 6.2 -13.3°
Maximum altitude 04:13:48 48° 81° (E) 804 4.1 -12.6°
Drops below altitude 10° 04:17:59 10° 156° (SSE) 1,956 5.5 -11.9°
Sets 04:20:15 0° 162° (SSE) 2,854 6.3 -11.5°
